Date String (YYYY-MM-DD hh:mm:ss) UTC,Instrument flags,Ambient pressure (hPa),Sample flow (lpm),Bypass flow (lpm),Sample temperature (°C),Ambient temperature (°C),ASC tube jacket temperature (°C),LED temperature (°C),Box temperature (°C),Sample RH (%),Span deviation,Mass concentration (μg/m³),Mass concentration (μg/m³),Mass concentration (μg/m³)
DateTimeUTC,F1_M11,P_M11,Q1_M11,Q2_M11,T1_M11,T2_M11,T3_M11,T4_M11,T5_M11,U1_M11,ZSPAN_M11,X0_M11,X2_M11,X1_M11
2022-02-13 13:00:00,,0831.0,5.00,0.00,22.3,21.6,00.0,31.3,24.0,08.2,0000.0,0005.03,0003.09,0002.51
2022-02-13 13:01:00,,0831.0,5.01,0.00,22.3,21.5,00.0,31.3,24.0,08.2,0000.0,0006.40,0003.03,0002.44
2022-02-13 13:02:00,,0831.1,5.00,0.00,22.3,21.5,00.0,31.3,24.0,08.2,0000.0,0006.48,0003.02,0002.38
2022-02-13 13:03:00,,0831.2,5.01,0.00,22.2,21.5,00.0,31.3,23.9,08.3,0000.0,0006.72,0002.97,0002.36
2022-02-13 13:04:00,,0831.2,4.99,0.00,22.2,21.5,00.0,31.3,23.9,08.3,0000.0,0006.89,0002.98,0002.33
2022-02-13 13:05:00,,0831.2,5.01,0.00,22.2,21.4,00.0,31.2,23.9,08.3,0000.0,0006.84,0002.95,0002.29
2022-02-13 13:06:00,,0831.2,4.99,0.00,22.2,21.4,00.0,31.2,23.9,08.5,0000.0,0006.75,0002.91,0002.28
2022-02-13 13:07:00,,0831.2,5.02,0.00,22.1,21.3,00.0,31.2,23.8,08.5,0000.0,0006.64,0002.92,0002.30
2022-02-13 13:08:00,,0831.2,5.00,0.00,22.1,21.2,00.0,31.2,23.8,08.5,0000.0,0006.65,0002.95,0002.33
2022-02-13 13:09:00,,0831.1,4.99,0.00,22.1,21.2,00.0,31.2,23.8,08.5,0000.0,0006.79,0003.00,0002.36
2022-02-13 13:10:00,,0831.1,5.02,0.00,22.1,21.3,00.0,31.2,23.8,08.5,0000.0,0006.92,0003.07,0002.40
2022-02-13 13:11:00,,0831.2,5.00,0.00,22.2,21.7,00.0,31.2,23.9,08.6,0000.0,0007.02,0003.12,0002.46
2022-02-13 13:12:00,,0831.1,5.00,0.00,22.3,22.5,00.0,31.2,24.2,08.5,0000.0,0005.99,0003.12,0002.50
2022-02-13 13:13:00,,0831.0,5.00,0.00,22.4,23.1,00.0,31.3,24.4,08.5,0000.0,0006.33,0003.14,0002.56
2022-02-13 13:14:00,,0831.1,4.99,0.00,22.5,23.0,00.0,31.3,24.4,08.4,0000.0,0006.18,0003.17,0002.60
2022-02-13 13:15:00,,0831.0,5.01,0.00,22.5,22.7,00.0,31.3,24.3,08.5,0000.0,0006.08,0003.21,0002.70
2022-02-13 13:16:00,,0831.0,5.01,0.00,22.4,22.4,00.0,31.3,24.2,08.5,0000.0,0006.21,0003.27,0002.81
2022-02-13 13:17:00,,0831.0,5.01,0.00,22.4,22.2,00.0,31.3,24.2,08.5,0000.0,0006.41,0003.33,0002.87
2022-02-13 13:18:00,,0831.0,4.99,0.00,22.4,22.1,00.0,31.3,24.1,08.5,0000.0,0006.48,0003.34,0002.93
2022-02-13 13:19:00,,0830.9,4.99,0.00,22.3,21.9,00.0,31.3,24.0,08.5,0000.0,0006.74,0003.40,0002.99
2022-02-13 13:20:00,,0830.9,5.02,0.00,22.3,21.7,00.0,31.3,23.9,08.6,0000.0,0006.89,0003.43,0003.05
2022-02-13 13:21:00,,0831.0,4.98,0.00,22.2,21.6,00.0,31.3,23.8,08.6,0000.0,0007.15,0003.47,0003.12
2022-02-13 13:22:00,,0831.0,5.00,0.00,22.1,21.4,00.0,31.2,23.7,08.7,0000.0,0007.18,0003.53,0003.15
2022-02-13 13:23:00,,0831.0,5.00,0.00,22.0,21.2,00.0,31.2,23.5,08.8,0000.0,0007.14,0003.59,0003.19
2022-02-13 13:24:00,,0831.0,4.99,0.00,21.9,21.1,00.0,31.2,23.4,08.7,0000.0,0006.82,0003.64,0003.23
2022-02-13 13:25:00,,0831.1,5.00,0.00,21.9,21.0,00.0,31.1,23.4,08.7,0000.0,0006.90,0003.66,0003.25
2022-02-13 13:26:00,,0831.2,5.01,0.00,21.8,20.9,00.0,31.1,23.3,08.8,0000.0,0006.83,0003.65,0003.25
2022-02-13 13:27:00,,0831.2,4.99,0.00,21.9,21.4,00.0,31.1,23.5,08.9,0000.0,0006.98,0003.64,0003.26
2022-02-13 13:28:00,,0831.2,5.00,0.00,22.0,22.2,00.0,31.1,23.8,08.9,0000.0,0007.19,0003.67,0003.28
2022-02-13 13:29:00,,0831.1,5.00,0.00,22.1,22.8,00.0,31.1,24.0,08.8,0000.0,0007.28,0003.68,0003.29
2022-02-13 13:30:00,,0831.0,5.00,0.00,22.2,22.6,00.0,31.2,24.1,08.7,0000.0,0007.21,0003.67,0003.30
2022-02-13 13:31:00,,0831.1,5.00,0.00,22.2,22.4,00.0,31.2,24.1,08.6,0000.0,0007.20,0003.68,0003.31
2022-02-13 13:32:00,,0831.1,5.00,0.00,22.2,22.2,00.0,31.2,24.0,08.7,0000.0,0007.64,0003.73,0003.33
2022-02-13 13:33:00,,0831.0,5.02,0.00,22.2,21.9,00.0,31.2,23.9,08.8,0000.0,0007.53,0003.72,0003.34
2022-02-13 13:34:00,,0831.0,4.99,0.00,22.1,21.7,00.0,31.1,23.8,08.8,0000.0,0007.38,0003.72,0003.36
2022-02-13 13:35:00,,0831.0,5.00,0.00,22.1,21.6,00.0,31.1,23.7,08.8,0000.0,0007.36,0003.72,0003.37
2022-02-13 13:36:00,,0831.0,4.99,0.00,22.0,21.5,00.0,31.1,23.7,08.7,0000.0,0007.36,0003.73,0003.38
2022-02-13 13:37:00,,0831.0,5.01,0.00,22.0,21.4,00.0,31.1,23.7,08.7,0000.0,0007.43,0003.76,0003.38
2022-02-13 13:38:00,,0831.0,5.00,0.00,22.0,21.4,00.0,31.1,23.7,08.7,0000.0,0007.37,0003.77,0003.38
2022-02-13 13:39:00,,0831.0,4.99,0.00,22.0,21.4,00.0,31.1,23.7,08.8,0000.0,0007.34,0003.76,0003.39
2022-02-13 13:40:00,,0830.9,4.99,0.00,22.0,21.3,00.0,31.1,23.6,08.6,0000.0,0007.33,0003.77,0003.38
2022-02-13 13:41:00,,0831.0,5.01,0.00,21.9,21.2,00.0,31.0,23.6,08.5,0000.0,0008.05,0003.76,0003.37
2022-02-13 13:42:00,,0831.0,5.00,0.00,21.9,21.1,00.0,31.0,23.5,08.5,0000.0,0008.07,0003.74,0003.34
2022-02-13 13:43:00,,0831.0,5.00,0.00,21.9,21.1,00.0,31.0,23.5,08.5,0000.0,0007.71,0003.70,0003.30
2022-02-13 13:44:00,,0831.1,5.00,0.00,21.8,21.1,00.0,31.0,23.5,08.5,0000.0,0007.65,0003.67,0003.27
2022-02-13 13:45:00,,0831.0,5.00,0.00,21.8,21.1,00.0,31.0,23.5,08.5,0000.0,0007.67,0003.65,0003.24
2022-02-13 13:46:00,,0831.0,5.02,0.00,21.9,21.5,00.0,31.0,23.6,08.5,0000.0,0007.63,0003.61,0003.20
2022-02-13 13:47:00,,0831.0,5.00,0.00,22.0,22.2,00.0,31.0,23.8,08.6,0000.0,0007.56,0003.58,0003.18
2022-02-13 13:48:00,,0831.0,5.00,0.00,22.1,22.9,00.0,31.0,24.1,08.5,0000.0,0007.76,0003.55,0003.17
2022-02-13 13:49:00,,0831.0,5.00,0.00,22.2,22.8,00.0,31.1,24.2,08.4,0000.0,0008.38,0003.56,0003.15
2022-02-13 13:50:00,,0831.0,5.00,0.00,22.3,22.6,00.0,31.1,24.1,08.3,0000.0,0008.28,0003.51,0003.12
2022-02-13 13:51:00,,0831.0,4.99,0.00,22.3,22.4,00.0,31.1,24.1,08.3,0000.0,0008.19,0003.45,0003.05
2022-02-13 13:52:00,,0831.0,5.00,0.00,22.2,22.2,00.0,31.1,24.1,08.3,0000.0,0007.56,0003.44,0003.00
2022-02-13 13:53:00,,0831.0,5.01,0.00,22.2,22.0,00.0,31.1,24.0,08.2,0000.0,0007.63,0003.45,0002.98
2022-02-13 13:54:00,,0831.0,5.00,0.00,22.2,21.9,00.0,31.1,24.0,08.2,0000.0,0007.54,0003.41,0002.95
2022-02-13 13:55:00,,0831.0,4.99,0.00,22.2,21.8,00.0,31.1,23.9,08.3,0000.0,0007.45,0003.37,0002.91
2022-02-13 13:56:00,,0831.0,5.02,0.00,22.2,21.7,00.0,31.1,23.9,08.3,0000.0,0007.34,0003.33,0002.89
2022-02-13 13:57:00,,0831.0,5.00,0.00,22.2,21.6,00.0,31.1,23.9,08.3,0000.0,0007.31,0003.32,0002.87
2022-02-13 13:58:00,,0831.0,5.00,0.00,22.1,21.5,00.0,31.1,23.8,08.3,0000.0,0007.18,0003.27,0002.81
2022-02-13 13:59:00,,0831.0,5.01,0.00,22.1,21.5,00.0,31.1,23.8,08.3,0000.0,0006.60,0003.25,0002.76
